Theta_e
324 322 322 322 322 321 321 321 321 320 320 320 320 320 321 321 322 322 322 322 321 322 323 322 322 322 317 311 317 334 349 345 326 320 318 322 318 312 308 310 313 311 312 312 312 313 311
321 321 320 320 321 320 320 320 320 320 320 320 320 319 320 320 321 321 322 321 320 323 324 322 322 323 316 313 331 338 325 321 317 318 321 322 316 316 311 311 311 315 312 311 311 314 315
318 318 317 318 318 318 318 318 318 318 319 319 319 319 319 319 320 320 321 320 320 325 323 323 323 323 321 318 332 331 321 316 317 316 320 322 318 312 312 312 320 313 306 310 311 312 311
317 317 317 317 317 317 317 317 317 316 317 318 318 317 318 318 319 319 319 319 320 326 324 323 324 319 316 329 326 325 321 319 321 320 322 321 320 313 312 320 316 308 304 299 309 311 311
316 316 316 316 316 316 316 316 315 316 317 316 317 317 317 317 317 317 317 318 320 328 325 325 319 317 317 328 322 323 324 322 322 321 320 325 318 313 315 308 304 303 300 302 306 312 310
315 315 315 315 315 315 314 315 315 315 316 316 316 316 316 316 316 316 316 318 324 322 324 326 325 315 323 315 321 322 322 323 320 319 317 315 309 305 305 301 296 300 302 305 304 308 308
314 314 314 315 314 314 313 314 314 314 315 315 315 315 315 315 315 315 314 318 314 314 317 315 316 320 323 323 322 320 322 319 319 314 307 312 303 301 306 308 307 306 304 304 308 311 307
313 313 313 313 313 313 313 313 314 314 314 314 314 314 314 314 313 313 312 315 312 313 308 318 320 320 321 320 313 317 321 313 313 306 310 306 302 309 313 311 308 306 304 303 308 311 307
312 312 312 313 313 313 313 313 313 313 313 313 313 313 313 313 312 317 319 315 320 317 307 315 318 317 315 315 313 313 316 315 311 307 307 303 307 315 313 308 307 303 301 304 304 308 307
312 312 312 312 312 313 312 313 313 313 313 312 313 313 312 310 315 319 319 320 320 319 302 311 311 313 316 315 310 319 318 316 311 307 309 306 312 312 309 308 307 299 309 309 307 303 296
311 311 311 311 311 312 312 312 312 312 312 312 312 312 311 310 310 317 321 321 320 315 296 312 311 319 315 311 313 314 318 313 308 309 306 305 308 308 307 309 310 305 309 306 306 300 297
311 311 311 310 311 311 311 311 311 311 311 311 311 311 311 313 313 321 326 325 318 302 297 308 312 309 308 310 312 314 313 314 314 309 309 308 313 310 308 312 311 311 306 305 303 299 292
310 310 310 311 311 311 311 311 311 311 311 310 310 309 308 312 309 314 319 316 302 298 313 307 306 308 306 306 308 310 308 305 301 297 299 306 307 310 312 306 309 306 298 293 292 293 293
310 311 311 312 311 311 311 311 311 310 310 309 308 308 313 314 316 317 317 308 299 309 309 312 310 308 304 307 307 309 307 303 307 305 300 298 299 307 312 307 303 303 302 293 289 291 293
312 312 312 311 311 311 310 310 310 310 309 308 308 312 313 319 319 319 311 301 303 309 311 310 309 305 304 308 307 307 305 305 307 307 299 298 301 312 313 312 308 303 298 302 295 297 293
312 313 313 312 311 311 310 310 310 310 309 308 306 310 314 318 323 316 306 300 305 310 311 312 304 307 302 306 304 304 305 309 309 311 309 302 297 306 312 311 310 304 306 296 296 289 288
312 313 312 312 312 311 310 310 310 309 308 308 308 311 319 320 319 310 300 303 307 312 313 309 306 305 305 305 306 304 305 310 311 310 310 304 301 302 307 303 303 303 299 300 298 296 290
313 312 313 312 312 311 310 310 309 308 306 307 308 306 320 321 307 307 302 306 307 310 313 310 309 307 305 308 306 306 307 310 314 312 306 308 301 298 302 309 312 306 303 301 295 294 294
312 312 312 312 312 311 311 310 309 308 307 302 302 308 317 317 301 301 306 308 310 309 309 308 307 308 308 305 302 309 310 313 314 311 305 306 300 295 298 302 306 304 305 303 302 299 294
312 312 312 312 312 312 311 310 309 308 307 304 304 306 311 310 309 304 302 305 307 312 309 310 310 310 307 305 305 306 308 313 312 310 321 312 301 299 293 297 301 301 305 306 301 294 295
312 312 312 312 312 312 311 311 310 308 307 304 310 310 310 306 308 308 310 306 306 305 310 311 306 307 305 301 305 304 308 309 310 316 309 305 298 300 299 303 303 303 303 303 297 298 294
311 311 311 311 311 312 312 311 310 308 306 306 307 306 308 306 308 306 306 308 307 308 308 309 306 308 307 303 305 304 307 306 306 307 304 304 298 302 298 304 304 302 304 303 302 301 299
311 311 310 310 311 311 312 311 310 308 306 306 310 311 307 306 304 302 303 307 306 308 309 310 310 309 308 309 311 310 309 309 307 306 304 304 301 301 295 303 302 296 300 302 302 303 301
310 310 310 310 311 311 311 311 310 309 307 302 306 306 303 300 302 303 305 306 306 310 308 312 313 309 313 316 315 312 311 308 309 306 305 304 303 300 294 297 289 299 307 307 305 306 307
310 310 310 311 311 311 310 311 311 310 308 302 305 307 304 299 304 305 305 305 307 310 309 310 312 315 314 311 305 302 301 302 306 307 305 303 304 296 293 293 298 302 305 308 305 304 312
311 311 310 311 311 311 310 310 311 310 308 304 303 311 308 301 300 304 302 306 303 304 305 308 312 314 311 306 302 295 294 299 299 301 305 303 305 299 295 291 290 300 309 315 312 299 316
310 311 310 310 310 311 311 310 309 310 309 304 302 307 306 300 304 305 302 302 306 305 305 306 308 309 310 302 297 295 295 302 296 296 297 299 300 297 297 294 298 307 311 314 298 301 315
311 311 311 310 310 311 310 310 309 309 310 306 302 307 306 303 303 306 307 304 304 304 300 303 305 307 306 300 300 299 298 300 298 300 299 299 298 297 297 295 292 316 315 306 312 313 314
311 311 311 310 310 310 310 310 309 309 310 309 301 308 309 305 304 308 308 309 308 308 304 304 303 305 309 304 303 304 301 302 299 295 304 295 302 302 302 300 311 314 314 316 315 313 314
Wind_Speed
17 19 19 18 18 19 20 20 20 20 21 21 21 21 21 21 21 20 19 17 14 11 7 5 5 5 2 3 8 7 9 8 6 4 6 10 10 7 9 9 12 5 4 6 7 8 3
19 19 20 19 19 20 20 20 21 22 22 22 22 22 22 21 20 20 19 17 13 11 1 4 7 7 3 4 6 11 8 7 7 6 9 10 8 10 7 9 7 8 5 7 6 5 3
19 19 20 20 20 21 22 22 23 23 23 23 24 24 23 22 21 20 19 17 14 9 3 6 8 5 5 9 12 10 11 7 7 9 11 12 8 6 9 11 8 8 5 8 8 7 4
18 19 19 20 21 21 22 23 24 24 24 24 24 25 24 23 21 21 19 16 13 5 4 6 7 5 7 5 9 12 10 10 11 12 12 9 6 6 6 10 11 10 5 3 7 7 5
19 20 20 21 21 22 22 23 24 24 24 24 25 26 25 25 22 21 21 17 9 2 4 7 4 3 8 3 6 10 11 12 10 9 9 8 5 5 9 7 7 6 9 6 5 3 3
19 20 20 21 22 22 23 23 24 24 24 25 25 26 27 27 23 19 25 9 4 1 4 7 8 5 6 8 7 8 9 8 6 8 4 4 3 4 5 1 5 6 8 8 9 6 3
19 20 21 21 22 23 24 24 24 25 25 26 26 27 28 28 27 18 12 1 1 1 6 9 4 7 7 11 6 8 8 6 7 3 6 9 3 7 13 10 3 7 7 7 4 7 6
19 20 21 21 22 23 24 25 25 25 25 26 27 28 29 31 29 23 3 3 4 5 9 12 18 19 4 9 6 8 9 6 5 8 8 4 9 11 2 4 4 7 8 7 1 9 7
19 20 21 21 22 23 23 24 25 26 26 26 27 27 28 32 33 6 5 2 6 6 4 9 16 14 5 6 9 10 11 8 8 8 11 10 8 4 2 5 5 4 4 4 3 6 3
19 20 21 22 23 23 24 25 26 27 27 27 27 26 26 34 6 7 6 6 5 2 3 7 8 7 9 7 7 8 12 9 7 10 9 6 4 5 5 6 1 7 9 9 9 8 3
19 20 21 22 23 23 24 25 26 27 28 28 27 26 25 10 8 6 7 7 5 3 3 12 8 6 11 9 4 10 11 8 13 11 1 9 3 7 3 4 7 3 7 7 7 6 4
19 20 21 22 23 24 24 26 27 27 28 29 28 26 22 1 5 10 14 15 4 1 7 10 7 7 8 9 9 10 7 7 5 7 8 7 2 3 3 5 3 4 6 8 7 4 2
18 19 20 21 20 22 24 26 27 29 30 31 32 31 11 6 6 7 12 5 0 4 9 8 9 11 10 9 12 10 7 5 4 2 6 9 10 7 4 4 6 6 4 5 8 7 4
17 17 17 19 20 21 23 25 28 30 31 33 34 33 7 9 9 10 4 3 4 9 9 7 11 14 10 11 12 13 10 7 10 9 5 5 10 11 6 5 1 3 3 5 2 3 6
15 16 17 18 20 21 23 25 28 30 33 34 32 4 5 6 13 7 1 3 7 5 13 11 5 3 10 13 11 10 11 12 10 11 10 1 2 11 8 6 7 4 3 5 2 4 3
15 16 17 18 20 21 23 25 27 31 34 34 7 5 6 10 13 4 1 6 6 9 13 9 5 4 4 7 5 7 5 6 8 3 9 2 3 3 6 8 1 5 4 5 4 2 5
15 15 19 18 20 20 22 25 26 30 35 32 3 5 3 8 5 1 4 7 10 17 1 4 6 9 10 9 9 4 10 9 9 6 9 5 5 9 7 3 8 0 1 4 4 4 2
15 15 17 17 19 19 20 22 24 26 33 10 6 4 3 3 2 4 6 7 7 14 5 1 3 8 8 10 9 7 4 4 8 8 9 3 3 2 9 7 7 2 8 6 6 6 2
14 14 16 17 19 17 19 21 22 21 19 8 6 5 6 3 3 7 11 18 20 8 6 3 4 6 9 6 6 6 6 6 10 8 3 5 2 3 8 9 7 3 2 5 2 3 5
15 14 13 15 17 18 19 19 21 20 18 6 5 5 4 2 5 7 9 12 15 7 3 8 7 8 7 6 6 5 5 5 12 6 6 7 2 5 6 6 6 6 8 4 7 3 6
15 14 14 15 16 18 17 19 21 23 24 3 4 4 4 4 5 11 7 10 10 9 7 3 4 6 8 5 7 6 7 5 8 9 5 6 2 3 5 9 10 9 10 10 7 6 4
15 14 13 13 14 16 16 18 19 24 30 3 4 6 7 9 9 9 9 6 8 13 5 5 7 7 8 4 5 6 7 6 6 2 5 4 3 3 5 7 9 13 12 12 13 10 9
14 13 12 12 14 15 16 15 16 19 21 5 6 5 5 7 8 8 6 7 12 10 12 9 5 3 13 9 9 8 8 7 4 7 5 6 3 2 3 6 9 7 7 10 11 9 6
13 13 12 12 12 13 14 14 13 13 11 5 4 6 4 6 8 10 17 16 11 7 5 7 11 6 4 8 7 8 9 7 7 6 3 4 6 3 2 5 8 8 10 13 19 15 6
13 13 12 12 12 12 13 12 13 11 11 6 5 4 4 7 10 14 18 14 13 4 6 7 7 5 7 7 5 5 4 4 5 6 8 4 4 3 5 6 8 7 12 1 4 3 7
13 12 12 12 12 12 11 12 13 11 11 7 8 7 3 4 3 14 16 13 5 7 7 7 7 3 4 3 3 1 3 3 4 4 8 8 5 6 3 5 9 7 11 4 5 4 6
14 12 12 12 12 12 11 11 12 12 12 6 6 9 4 6 7 10 9 9 7 7 5 6 10 8 4 3 3 4 8 7 10 9 9 4 5 8 6 6 7 7 11 5 6 6 6
14 13 12 11 11 11 10 10 11 12 11 6 8 10 4 4 11 10 12 11 10 6 5 9 7 6 5 0 2 5 4 6 7 6 5 6 5 5 3 4 10 4 5 2 3 2 5
12 11 11 11 11 11 10 10 10 10 10 8 5 10 10 3 8 17 17 15 13 8 5 5 4 5 4 5 5 5 4 4 6 8 6 4 4 4 9 9 7 5 7 8 5 3 2
Wind_Direction
6 4 4 1 359 357 353 350 349 347 343 340 338 337 335 335 336 336 336 333 328 315 289 249 211 205 226 211 251 134 135 141 150 186 216 236 255 266 269 301 327 336 343 16 358 57 11
5 1 359 358 358 356 353 350 348 348 343 340 339 336 335 334 335 335 334 331 330 319 278 189 177 167 250 261 111 140 159 154 177 187 220 248 254 261 285 286 290 290 26 312 282 140 228
4 4 1 359 359 357 354 351 349 346 343 341 339 336 334 334 335 334 332 328 328 325 128 160 168 221 269 262 139 165 155 186 195 202 230 230 256 322 311 308 304 303 306 268 251 193 197
6 2 360 359 359 357 354 351 348 346 342 340 338 335 333 332 334 332 327 323 319 324 141 154 174 258 248 190 137 154 193 204 200 210 231 283 275 252 279 283 301 297 274 270 194 192 163
6 2 360 359 358 356 353 350 347 344 341 339 336 334 332 330 333 332 323 314 293 208 140 153 199 230 276 93 217 194 199 210 192 215 251 264 3 279 291 271 296 273 252 173 177 140 133
5 2 359 359 357 355 352 349 347 343 341 338 336 333 331 328 330 332 320 283 121 314 210 204 263 294 266 211 203 187 236 264 211 213 218 202 239 230 287 270 254 305 340 122 146 182 122
4 2 358 357 357 354 351 349 346 343 341 338 336 333 330 326 324 330 340 53 35 255 248 217 217 222 165 222 157 190 197 230 258 241 227 218 177 233 238 213 326 337 347 358 78 118 100
3 1 358 356 355 352 351 348 344 342 340 338 336 333 330 324 321 323 239 244 55 245 298 256 245 262 222 144 175 205 162 200 213 241 242 278 234 253 347 35 12 331 317 307 146 125 104
2 360 357 355 354 352 350 346 343 341 339 337 334 332 331 324 318 300 219 339 259 282 259 275 221 234 180 164 238 191 156 216 248 236 243 218 247 124 15 320 258 303 305 24 29 360 355
1 360 357 354 353 351 349 345 343 340 337 335 332 331 333 329 325 346 283 2 14 20 300 249 180 210 203 191 247 198 170 203 224 233 271 215 120 43 340 288 19 71 8 8 353 8 277
359 358 355 355 353 351 348 345 342 339 335 332 330 328 329 321 306 293 313 329 328 38 318 144 173 187 153 182 198 148 168 227 258 289 335 261 162 147 243 7 57 324 13 329 295 283 292
359 357 356 355 353 350 346 344 341 338 335 330 325 322 332 141 225 256 300 292 327 358 246 172 136 170 163 213 257 149 158 223 293 299 313 258 296 77 354 34 39 348 301 296 273 208 273
356 355 354 351 347 346 344 342 341 338 334 328 322 314 306 278 239 324 318 310 287 226 148 155 166 165 190 189 240 146 181 197 214 248 270 283 246 179 149 18 303 214 13 342 354 1 229
351 350 348 345 345 343 343 342 340 339 335 328 322 310 233 208 234 261 282 341 247 269 263 197 162 162 182 204 215 179 170 199 217 228 262 253 319 146 132 192 73 326 115 148 296 329 290
339 338 341 341 343 344 343 343 342 340 336 329 317 287 246 226 218 243 318 254 224 201 340 345 125 194 202 203 209 182 186 197 221 201 181 236 57 69 150 128 117 355 355 245 24 314 15
330 335 334 334 335 340 342 344 343 341 338 330 315 289 251 231 191 195 171 251 296 318 293 2 355 332 264 273 226 155 180 213 231 202 110 54 60 254 197 94 148 179 220 16 340 288 277
324 328 327 324 329 334 339 344 346 344 340 323 264 291 242 161 123 138 219 251 277 284 103 28 327 315 304 309 318 208 207 220 260 123 93 68 98 297 109 173 211 349 193 241 137 114 198
330 332 335 336 333 331 336 341 346 349 344 4 315 279 188 165 133 205 225 247 266 290 121 115 270 275 294 309 327 314 335 77 3 130 129 111 124 227 227 296 314 173 186 139 113 300 302
326 327 332 334 336 332 334 339 343 351 6 321 313 276 292 154 226 236 259 260 259 242 295 284 267 231 279 290 328 338 17 64 45 53 59 334 333 9 332 336 340 275 179 106 113 129 233
317 324 329 332 337 335 334 336 339 343 344 329 285 291 256 203 224 265 297 291 293 167 223 301 337 338 336 288 274 320 324 137 80 102 96 71 14 156 193 224 283 304 308 196 184 149 226
319 320 323 327 334 337 335 334 337 338 334 291 240 267 3 345 356 329 307 273 318 309 151 178 285 270 290 312 335 295 292 117 123 169 129 110 183 312 307 305 304 307 312 317 309 236 204
314 315 320 327 330 334 335 334 338 341 335 215 299 356 337 298 301 311 301 325 313 308 334 245 198 255 269 310 334 331 26 346 202 178 132 154 225 251 275 291 299 292 285 283 275 278 285
308 311 321 322 328 332 335 335 340 351 344 339 347 334 300 299 315 321 279 287 297 281 291 291 351 7 48 25 356 319 301 296 44 135 154 151 140 96 254 337 336 311 283 286 287 271 235
304 309 311 315 320 329 334 336 337 351 9 323 303 298 299 302 319 305 313 313 275 29 339 2 10 16 47 34 348 340 329 322 355 358 55 150 135 119 236 349 281 254 267 270 266 262 147
297 298 302 309 315 321 330 337 335 334 340 325 291 306 306 300 321 317 341 326 308 23 345 338 327 3 5 39 8 350 331 341 313 297 312 308 163 184 159 210 263 283 283 293 12 270 89
286 289 295 301 307 314 322 336 335 331 332 328 292 285 313 298 176 338 314 317 343 0 343 305 303 271 15 60 22 276 257 317 288 290 238 245 183 163 189 209 251 238 282 357 70 306 73
278 278 285 290 297 306 314 325 334 332 331 333 281 297 285 288 268 340 359 340 343 350 312 22 335 340 179 168 206 248 258 267 250 253 269 248 249 214 212 232 248 244 279 212 160 221 91
275 277 277 277 286 295 301 311 324 329 330 340 290 290 294 290 299 304 350 335 344 350 358 343 333 17 322 324 239 226 256 258 282 262 246 236 194 211 168 239 264 25 30 101 198 75 67
268 265 262 263 273 284 290 297 310 319 321 342 285 332 333 273 292 311 286 267 269 278 313 327 305 316 350 2 14 348 341 323 282 283 301 296 224 226 194 222 190 173 158 170 185 189 218